Hill AFB, UT

6:13 PM MST on December 07, 2016 (GMT -0700)
Hill Air Force Base

Weather History for KHIF - October, 2013

Change the Weather History Date:

Saturday, October 26, 2013

  Actual Average Record
Temperature  
Mean Temperature 52 °F -  
Max Temperature 65 °F 51 °F 69 °F (1999)
Min Temperature 40 °F 35 °F 24 °F (2012)
Degree Days  
Heating Degree Days 12    
Growing Degree Days 2 (Base 50)    
Moisture  
Dew Point 27 °F    
Average Humidity 39    
Maximum Humidity 52    
Minimum Humidity 25    
Precipitation  
Precipitation 0.00 in - - ()
Sea Level Pressure  
Sea Level Pressure 30.22 in    
Wind  
Wind Speed 12 mph (ESE)    
Max Wind Speed 21 mph    
Max Gust Speed 25 mph    
Visibility 10 miles    
Events      
Averages and records for this station are not official NWS values.
T = Trace of Precipitation, MM = Missing Value Source: NWS Daily Summary

Daily Weather History Graph

Daily Weather History Graph

Search for Another Location

Airport or City:

Trip Planner

Search our weather history database for the weather conditions in past years. The results will help you decide how hot, cold, wet, or windy it might be!

Date:

Astronomy

Oct. 26, 2013 Rise Set
Actual Time 7:52 AM MDT 6:30 PM MDT
Civil Twilight 7:23 AM MDT 6:58 PM MDT
Nautical Twilight 6:51 AM MDT 7:31 PM MDT
Astronomical Twilight 6:19 AM MDT 8:03 PM MDT
Moon No Moon Rise 2:10 PM MDT (10/26)
Length of Visible Light 11h 35m
Length of Day
10h 38m
Waning Gibbous, 52% of the Moon is Illuminated
Oct 26
Waning Gibbous
Oct 26
Last Quarter
Nov 3
New
Nov 9
First Quarter
Nov 17
Full

Hourly Weather History & Observations

Time (MDT) Temp. Windchill Dew Point Humidity Pressure Visibility Wind Dir Wind Speed Gust Speed Precip Events Conditions
12:58 AM 48.9 °F - 25.3 °F 40% 30.19 in 10.0 mi ESE 13.8 mph - N/A   Clear
1:58 AM 46.6 °F - 25.3 °F 43% 30.21 in 10.0 mi ESE 11.5 mph - N/A   Clear
2:58 AM 46.6 °F - 24.8 °F 43% 30.22 in 10.0 mi ESE 13.8 mph - N/A   Clear
3:58 AM 45.1 °F 38.4 °F 24.6 °F 45% 30.21 in 10.0 mi ESE 15.0 mph - N/A   Clear
4:58 AM 44.8 °F 36.9 °F 24.3 °F 45% 30.22 in 10.0 mi ESE 19.6 mph - N/A   Clear
5:58 AM 42.4 °F 34.1 °F 24.8 °F 50% 30.24 in 10.0 mi ESE 18.4 mph - N/A   Clear
6:58 AM 41.9 °F 33.7 °F 24.6 °F 50% 30.27 in 10.0 mi ESE 17.3 mph 25.3 mph N/A   Clear
7:58 AM 40.6 °F 31.2 °F 24.3 °F 52% 30.27 in 10.0 mi ESE 20.7 mph - N/A   Clear
8:58 AM 41.7 °F 33.7 °F 24.6 °F 51% 30.31 in 10.0 mi ESE 16.1 mph - N/A   Clear
9:58 AM 45.9 °F 38.5 °F 25.2 °F 44% 30.30 in 10.0 mi ESE 18.4 mph - N/A   Clear
10:58 AM 52.7 °F - 26.2 °F 36% 30.30 in 10.0 mi ENE 5.8 mph - N/A   Clear
11:58 AM 58.5 °F - 28.0 °F 31% 30.29 in 10.0 mi Variable 2.3 mph - N/A   Clear
12:58 PM 61.2 °F - 29.7 °F 30% 30.27 in 10.0 mi Variable 1.2 mph - N/A   Clear
1:58 PM 62.8 °F - 30.4 °F 30% 30.24 in 10.0 mi SSW 4.6 mph - N/A   Clear
2:58 PM 64.8 °F - 30.2 °F 27% 30.22 in 9.0 mi Calm Calm - N/A   Clear
3:58 PM 65.1 °F - 30.2 °F 27% 30.22 in 10.0 mi Variable 1.2 mph - N/A   Clear
4:58 PM 64.6 °F - 28.2 °F 25% 30.19 in 10.0 mi Variable 3.5 mph - N/A   Clear
5:58 PM 63.5 °F - 27.7 °F 26% 30.19 in 10.0 mi NW 2.3 mph - N/A   Clear
6:58 PM 55.6 °F - 36.3 °F 48% 30.20 in 10.0 mi WNW 4.6 mph - N/A   Clear
7:58 PM 53.8 °F - 36.1 °F 51% 30.20 in 10.0 mi East 2.3 mph - 0.00 in   Clear
8:58 PM 52.7 °F - 29.8 °F 42% 30.19 in 10.0 mi ESE 8.1 mph - 0.00 in   Clear
9:58 PM 51.6 °F - 23.5 °F 33% 30.17 in 10.0 mi ESE 12.7 mph - N/A   Clear
10:58 PM 50.7 °F - 22.1 °F 33% 30.15 in 10.0 mi ESE 16.1 mph - N/A   Clear
11:58 PM 49.8 °F - 22.1 °F 34% 30.10 in 10.0 mi ESE 15.0 mph - N/A   Clear